Location: B�rgermoos
(47.6500°N, 9.0667°E)
Time: 23:02:23
(UTC+00:00)

Vanguard 3 - Pass Details

Date: 12 August 2021
Orbit: 509 x 3260 km, 33.4° (Epoch: 27 September)

Event Time Altitude Azimuth Distance (km) Brightness Sun altitude
Rises 19:47:30 0° 270° (W) 5,688 12.4 -10.6°
Reaches altitude 10° 19:51:41 10° 259° (W) 5,063 11.8 -11.1°
Maximum altitude 20:03:31 27° 210° (SSW) 4,572 10.8 -12.7°
Drops below altitude 10° 20:17:59 10° 163° (SSE) 6,191 11.1 -14.5°
Enters shadow 20:19:00 - 161° (SSE) 6,348 11.1 -14.7°
